Location: Unspecified
(0.0000°N, 0.0000°E)
Time: 22:50:58
(UTC+00:00)

GONETS M 08 (M18) - Pass Details

Date: 21 May 2026
Orbit: 1470 x 1518 km, 82.5° (Epoch: 7 June)

Event Time Altitude Azimuth Distance (km) Brightness Sun altitude
Rises 03:46:03 0° 140° (SE) 4,648 ? -30.4°
Reaches altitude 10° 03:52:39 10° 104° (ESE) 3,672 ? -28.9°
Maximum altitude 03:54:17 11° 93° (E) 3,626 ? -28.5°
Drops below altitude 10° 03:55:55 10° 82° (E) 3,673 ? -28.1°
Sets 04:02:26 0° 47° (NE) 4,653 ? -26.6°
